Regional Weather Roundup
Issued by NWS

Home | Current Version | Previous Version | Graphics & Text | Print | Product List | Glossary On
Versions: 1 2 3 4 5 6 7 8 9 10 11 12 13 14 15 16 17 18 19 20 21 22 23 24 25 26 27 28 29 30 31 32 33 34 35 36 37 38 39 40 41 42 43 44 45 46 47 48 49 50
233
ASUS43 KTOP 221759
RWRKS

WEATHER ROUNDUP FOR KANSAS
NATIONAL WEATHER SERVICE GOODLAND KS
100 PM CDT MON MAY 22 2017

NOTE:  "FAIR" INDICATES FEW OR NO CLOUDS BELOW 12,000 FEET WITH NO
SIGNIFICANT WEATHER AND/OR OBSTRUCTIONS TO VISIBILITY.

KSZ001>006-013>018-027>032-041>047-221900-
NORTHWEST KANSAS

CITY           SKY/WX    TMP DP  RH WIND       PRES   REMARKS
GOODLAND       MOSUNNY   66  46  48 NW10      30.06F
6HR MIN TEMP:  50; 6HR MAX TEMP:  66;

HAYS           LGT RAIN  58  55  90 W9        30.06S
HILL CITY      CLOUDY    65  50  58 VRB3      30.04F
6HR MIN TEMP:  55; 6HR MAX TEMP:  65; 6HR PCP: TRACE;

RUSSELL        LGT RAIN  57  55  93 W8        30.03S
6HR MIN TEMP:  53; 6HR MAX TEMP:  57; 6HR PCP:  0.32;

$$

KSZ061>065-074>080-084>089-221900-
SOUTHWEST KANSAS

CITY           SKY/WX    TMP DP  RH WIND       PRES   REMARKS
DODGE CITY     RAIN      57  56  96 NW9       30.07S FOG
6HR MIN TEMP:  54; 6HR MAX TEMP:  61; 6HR PCP:  0.08;

ELKHART          N/A     57  42  57 N12         N/A
GARDEN CITY    CLOUDY    58  49  72 N13       30.08F
6HR MIN TEMP:  49; 6HR MAX TEMP:  60; 6HR PCP: TRACE;

LIBERAL        CLOUDY    62  52  69 SW10      30.09F
$$

KSZ066>073-081>083-090>101-221900-
SOUTHEAST KANSAS

CITY           SKY/WX    TMP DP  RH WIND       PRES   REMARKS
CHANUTE        CLOUDY    72  51  47 S10       30.04F
6HR MIN TEMP:  58; 6HR MAX TEMP:  72;

COFFEYVILLE    CLOUDY    74  54  49 S15       30.04F
6HR MIN TEMP:  57; 6HR MAX TEMP:  77;

HUTCHINSON     CLOUDY    66  52  60 W13       30.02F
6HR MIN TEMP:  59; 6HR MAX TEMP:  68;

MEDICINE LODGE   N/A     70  48  45 W9        30.02F
NEWTON         CLOUDY    64  55  72 NW3       30.03F
PARSONS        CLOUDY    74  56  53 VRB6      30.05F
6HR MIN TEMP:  58; 6HR MAX TEMP:  74;

WICHITA INTL   CLOUDY    65  54  67 S5        30.04F
6HR MIN TEMP:  57; 6HR MAX TEMP:  66; 6HR PCP: TRACE;

WICHITA JABRA  CLOUDY    65  52  62 SW8       30.04F
6HR MIN TEMP:  59; 6HR MAX TEMP:  67;

WINFIELD       CLOUDY    66  54  65 W7        30.06F
6HR MIN TEMP:  57; 6HR MAX TEMP:  67;

$$

KSZ007>012-019>026-033>040-048>060-102>105-221900-
NORTHEAST KANSAS

CITY           SKY/WX    TMP DP  RH WIND       PRES   REMARKS
CONCORDIA      LGT RAIN  58  56  93 CALM      30.03F
6HR MIN TEMP:  56; 6HR MAX TEMP:  61; 6HR PCP:  0.30;

EMPORIA        PTSUNNY   72  54  53 SW12G21   30.03F
6HR MIN TEMP:  56; 6HR MAX TEMP:  72; 6HR PCP: TRACE;

LAWRENCE       CLOUDY    68  59  73 S8        30.02F
6HR MIN TEMP:  53; 6HR MAX TEMP:  68; 6HR PCP:  0.01;

MANHATTAN      CLOUDY    65  59  81 NW7       30.02F
6HR MIN TEMP:  56; 6HR MAX TEMP:  68; 6HR PCP:  0.17;

OLATHE IND     CLOUDY    70  57  63 SW12      30.03F
6HR MIN TEMP:  53; 6HR MAX TEMP:  71; 6HR PCP: TRACE;

OLATHE EXE     CLOUDY    69  58  67 SW9       30.03F
6HR MIN TEMP:  54; 6HR MAX TEMP:  69; 6HR PCP: TRACE;

SALINA         CLOUDY    64  58  80 W9        30.03F
6HR MIN TEMP:  57; 6HR MAX TEMP:  69; 6HR PCP:  0.08;

TOPEKA BILLARD CLOUDY    69  59  70 SW7       30.01F
6HR MIN TEMP:  57; 6HR MAX TEMP:  69; 6HR PCP:  0.04;

TOPEKA FORBES  CLOUDY    70  58  65 S14       30.02F
6HR MIN TEMP:  56; 6HR MAX TEMP:  70; 6HR PCP:  0.02;

$$




USA.gov is the U.S. government's official web portal to all federal, state and local government web resources and services.